TimeEDT,TemperatureF,Dew PointF,Humidity,Sea Level PressureIn,VisibilityMPH,Wind Direction,Wind SpeedMPH,Gust SpeedMPH,PrecipitationIn,Events,Conditions,WindDirDegrees,DateUTC
12:15 AM,24.8,21.2,86,29.84,10.0,Calm,Calm,-,N/A,,Unknown,0,2013-03-21 04:15:00
12:35 AM,24.8,21.2,86,29.84,10.0,Calm,Calm,-,N/A,,Unknown,0,2013-03-21 04:35:00
12:55 AM,24.8,19.4,80,29.83,10.0,WNW,3.5,-,N/A,,Unknown,290,2013-03-21 04:55:00
1:15 AM,24.8,19.4,80,29.83,10.0,West,5.8,-,N/A,,Unknown,280,2013-03-21 05:15:00
1:35 AM,23.0,19.4,86,29.82,10.0,Calm,Calm,-,N/A,,Unknown,0,2013-03-21 05:35:00
2:15 AM,24.8,21.2,86,29.81,10.0,Calm,Calm,-,N/A,,Unknown,0,2013-03-21 06:15:00
2:35 AM,21.2,21.2,100,29.81,0.8,WNW,4.6,-,N/A,,Unknown,300,2013-03-21 06:35:00
2:55 AM,21.2,21.2,100,29.80,10.0,Calm,Calm,-,N/A,,Unknown,0,2013-03-21 06:55:00
3:15 AM,19.4,19.4,100,29.80,10.0,Calm,Calm,-,N/A,,Unknown,0,2013-03-21 07:15:00
3:35 AM,19.4,19.4,100,29.79,10.0,Calm,Calm,-,N/A,,Unknown,0,2013-03-21 07:35:00
3:55 AM,21.2,21.2,100,29.79,7.0,NW,6.9,-,N/A,,Unknown,310,2013-03-21 07:55:00
4:15 AM,21.2,21.2,100,29.78,3.0,NW,6.9,-,N/A,,Unknown,310,2013-03-21 08:15:00
4:35 AM,21.2,21.2,100,29.78,4.0,WNW,4.6,-,N/A,,Unknown,300,2013-03-21 08:35:00
4:55 AM,21.2,21.2,100,29.78,5.0,NW,5.8,-,N/A,,Unknown,310,2013-03-21 08:55:00
5:15 AM,19.4,19.4,100,29.78,2.0,WNW,16.1,21.9,N/A,,Unknown,300,2013-03-21 09:15:00
5:35 AM,19.4,17.6,93,29.79,7.0,NW,12.7,-,N/A,,Unknown,310,2013-03-21 09:35:00
5:55 AM,17.6,15.8,93,29.79,10.0,WNW,6.9,-,N/A,,Unknown,300,2013-03-21 09:55:00
6:15 AM,17.6,14.0,86,29.79,10.0,NW,4.6,-,N/A,,Unknown,310,2013-03-21 10:15:00
6:35 AM,17.6,14.0,86,29.79,10.0,WNW,6.9,-,N/A,,Unknown,300,2013-03-21 10:35:00
6:55 AM,17.6,12.2,79,29.79,10.0,WNW,3.5,-,N/A,,Unknown,290,2013-03-21 10:55:00
7:15 AM,17.6,12.2,79,29.79,10.0,WNW,3.5,-,N/A,,Unknown,290,2013-03-21 11:15:00
7:35 AM,17.6,10.4,73,29.79,10.0,WNW,4.6,-,N/A,,Unknown,300,2013-03-21 11:35:00
7:55 AM,15.8,10.4,79,29.79,10.0,WNW,4.6,-,N/A,,Unknown,290,2013-03-21 11:55:00
8:15 AM,15.8,10.4,79,29.79,10.0,Calm,Calm,-,N/A,,Unknown,0,2013-03-21 12:15:00
8:55 AM,19.4,10.4,68,29.80,10.0,WNW,6.9,-,N/A,,Unknown,300,2013-03-21 12:55:00
9:15 AM,19.4,10.4,68,29.79,10.0,WNW,9.2,17.3,N/A,,Unknown,300,2013-03-21 13:15:00
9:35 AM,19.4,12.2,74,29.79,10.0,WNW,6.9,-,N/A,,Unknown,290,2013-03-21 13:35:00
9:55 AM,19.4,12.2,74,29.79,10.0,West,11.5,-,N/A,,Unknown,280,2013-03-21 13:55:00
10:15 AM,21.2,12.2,68,29.79,10.0,West,9.2,-,N/A,,Unknown,280,2013-03-21 14:15:00
10:35 AM,19.4,10.4,68,29.79,10.0,NW,10.4,-,N/A,,Unknown,310,2013-03-21 14:35:00
10:55 AM,21.2,12.2,68,29.79,10.0,West,9.2,-,N/A,,Unknown,280,2013-03-21 14:55:00
11:15 AM,21.2,12.2,68,29.79,10.0,WNW,8.1,-,N/A,,Unknown,300,2013-03-21 15:15:00
11:35 AM,21.2,12.2,68,29.79,10.0,West,13.8,18.4,N/A,,Unknown,280,2013-03-21 15:35:00
11:55 AM,21.2,12.2,68,29.80,10.0,WNW,9.2,16.1,N/A,,Unknown,290,2013-03-21 15:55:00
12:15 PM,21.2,12.2,68,29.80,5.0,West,9.2,-,N/A,,Unknown,280,2013-03-21 16:15:00
12:35 PM,21.2,12.2,68,29.80,5.0,WNW,5.8,-,N/A,,Unknown,300,2013-03-21 16:35:00
12:55 PM,21.2,14.0,74,29.80,7.0,WNW,10.4,17.3,N/A,,Unknown,290,2013-03-21 16:55:00
1:15 PM,23.0,10.4,59,29.79,10.0,WNW,10.4,16.1,N/A,,Unknown,290,2013-03-21 17:15:00
1:35 PM,23.0,12.2,63,29.79,10.0,NW,12.7,17.3,N/A,,Unknown,310,2013-03-21 17:35:00
1:55 PM,23.0,12.2,63,29.79,10.0,WNW,11.5,21.9,N/A,,Unknown,300,2013-03-21 17:55:00
2:15 PM,23.0,12.2,63,29.79,10.0,WNW,11.5,20.7,N/A,,Unknown,300,2013-03-21 18:15:00
2:35 PM,24.8,12.2,59,29.78,10.0,West,12.7,19.6,N/A,,Unknown,280,2013-03-21 18:35:00
2:55 PM,23.0,12.2,63,29.78,10.0,NW,8.1,19.6,N/A,,Unknown,310,2013-03-21 18:55:00
3:15 PM,24.8,12.2,59,29.78,10.0,WNW,10.4,19.6,N/A,,Unknown,300,2013-03-21 19:15:00
3:35 PM,24.8,12.2,59,29.77,10.0,WNW,11.5,19.6,N/A,,Unknown,290,2013-03-21 19:35:00
3:55 PM,24.8,12.2,59,29.77,10.0,West,8.1,19.6,N/A,,Unknown,280,2013-03-21 19:55:00
4:15 PM,26.6,14.0,59,29.78,10.0,NW,8.1,-,N/A,,Unknown,310,2013-03-21 20:15:00
4:35 PM,26.6,14.0,59,29.78,10.0,West,10.4,19.6,N/A,,Unknown,280,2013-03-21 20:35:00
4:55 PM,24.8,15.8,69,29.78,10.0,WNW,9.2,16.1,N/A,,Unknown,290,2013-03-21 20:55:00
5:15 PM,24.8,15.8,69,29.79,10.0,WNW,12.7,19.6,N/A,,Unknown,290,2013-03-21 21:15:00
5:35 PM,24.8,17.6,74,29.79,10.0,WNW,12.7,18.4,N/A,,Unknown,290,2013-03-21 21:35:00
5:55 PM,24.8,15.8,69,29.79,10.0,WNW,12.7,18.4,N/A,,Unknown,290,2013-03-21 21:55:00
6:15 PM,24.8,15.8,69,29.79,10.0,NW,8.1,18.4,N/A,,Unknown,310,2013-03-21 22:15:00
6:35 PM,24.8,15.8,69,29.79,10.0,West,11.5,18.4,N/A,,Unknown,280,2013-03-21 22:35:00
6:55 PM,24.8,15.8,69,29.80,10.0,WNW,11.5,16.1,N/A,,Unknown,300,2013-03-21 22:55:00
7:15 PM,24.8,15.8,69,29.81,10.0,WNW,11.5,16.1,N/A,,Unknown,290,2013-03-21 23:15:00
7:35 PM,24.8,17.6,74,29.81,10.0,West,13.8,19.6,N/A,,Unknown,280,2013-03-21 23:35:00
7:55 PM,24.8,17.6,74,29.81,10.0,West,12.7,20.7,N/A,,Unknown,280,2013-03-21 23:55:00
8:15 PM,24.8,19.4,80,29.82,10.0,WNW,10.4,16.1,N/A,,Unknown,290,2013-03-22 00:15:00
8:35 PM,24.8,19.4,80,29.82,7.0,West,8.1,-,N/A,,Unknown,270,2013-03-22 00:35:00
8:55 PM,24.8,21.2,86,29.82,5.0,West,9.2,-,N/A,,Unknown,280,2013-03-22 00:55:00
9:15 PM,24.8,23.0,93,29.82,4.0,West,12.7,17.3,N/A,,Unknown,270,2013-03-22 01:15:00
9:35 PM,23.0,23.0,100,29.82,3.0,West,10.4,-,N/A,,Unknown,270,2013-03-22 01:35:00
9:55 PM,23.0,23.0,100,29.82,7.0,West,11.5,-,N/A,,Unknown,260,2013-03-22 01:55:00
10:15 PM,24.8,24.8,100,29.82,4.0,West,9.2,-,N/A,,Unknown,260,2013-03-22 02:15:00
10:35 PM,23.0,23.0,100,29.82,7.0,West,11.5,18.4,N/A,,Unknown,260,2013-03-22 02:35:00
10:55 PM,24.8,24.8,100,29.82,7.0,West,11.5,16.1,N/A,,Unknown,260,2013-03-22 02:55:00
11:15 PM,24.8,24.8,100,29.82,3.0,West,10.4,-,N/A,,Unknown,270,2013-03-22 03:15:00
11:35 PM,24.8,24.8,100,29.82,2.5,West,12.7,-,N/A,,Unknown,260,2013-03-22 03:35:00
11:55 PM,24.8,24.8,100,29.82,4.0,West,11.5,-,N/A,,Unknown,260,2013-03-22 03:55:00